Location: Auckland
(36.8670°S, 174.7670°E)
Time: 17:08:17
(UTC+13:00)

Cosmos 1818 - Pass Details

Date: 24 January 2019
Orbit: 775 x 798 km, 65.0° (Epoch: 23 October)

Event Time Altitude Azimuth Distance (km) Brightness Sun altitude
Exits shadow 23:48:40 24° 294° (WNW) 1,612 5.1 -28.8°
Maximum altitude 23:51:35 44° 235° (SW) 1,096 4.6 -29.0°
Drops below altitude 10° 23:56:50 10° 162° (SSE) 2,384 6.6 -29.5°
Sets 23:59:23 0° 156° (SSE) 3,316 7.3 -29.7°
